Location: Helsinki
(60.1699°N, 24.9384°E)
Time: 04:02:32
(UTC+02:00)

Transit 4A - Pass Details

Date: 27 October 2020
Orbit: 862 x 982 km, 66.8° (Epoch: 25 November)

Event Time Altitude Azimuth Distance (km) Brightness Sun altitude
Rises 22:32:25 0° 305° (NW) 3,691 11.8 -40.1°
Reaches altitude 10° 22:34:59 10° 307° (NW) 2,746 10.9 -40.2°
Enters shadow 22:38:05 30° 311° (NW) 1,677 9.5 -40.4°
Maximum altitude 22:41:28 80° 35° (NE) 1,004 - -40.6°
Drops below altitude 10° 22:47:53 10° 123° (ESE) 2,720 - -40.9°
Sets 22:50:25 0° 125° (SE) 3,654 - -41.1°
